Location: Korczew
(51.3586°N, 19.4491°E)
Time: 16:41:01
(UTC+00:00)

BREEZE-M R/B - Pass Details

Date: 19 May 2025
Orbit: 537 x 26536 km, 49.1° (Epoch: 15 June)

Event Time Altitude Azimuth Distance (km) Brightness Sun altitude
Rises 20:01:17 0° 278° (W) 12,263 9.9 -10.8°
Reaches altitude 10° 20:14:11 10° 279° (W) 7,764 8.8 -12.0°
Maximum altitude 20:30:19 67° 202° (SSW) 1,292 4.0 -13.3°
Enters shadow 20:33:54 16° 121° (ESE) 1,923 4.6 -13.6°
